Charlevoix, MI

12:43 PM EDT on September 27, 2016 (GMT -0400)
Charlevoix Municipal

Weather History for KCVX - July, 2012

Change the Weather History Date:

Tuesday, July 24, 2012

  Actual Average Record
Temperature  
Mean Temperature 68 °F -  
Max Temperature 76 °F 70 °F 84 °F (2015)
Min Temperature 61 °F 57 °F 46 °F (2013)
Cooling Degree Days 4    
Growing Degree Days 18 (Base 50)    
Moisture  
Dew Point 56 °F    
Average Humidity 61    
Maximum Humidity 88    
Minimum Humidity 42    
Precipitation  
Precipitation 0.00 in - - ()
Sea Level Pressure  
Sea Level Pressure 29.99 in    
Wind  
Wind Speed 8 mph (NNW)    
Max Wind Speed 14 mph    
Max Gust Speed 22 mph    
Visibility 10 miles    
Events      
Averages and records for this station are not official NWS values.
T = Trace of Precipitation, MM = Missing Value Source: NWS Daily Summary

Daily Weather History Graph

Daily Weather History Graph

Search for Another Location

Airport or City:

Trip Planner

Search our weather history database for the weather conditions in past years. The results will help you decide how hot, cold, wet, or windy it might be!

Date:

Astronomy

Jul. 24, 2012 Rise Set
Actual Time 6:17 AM EDT 9:17 PM EDT
Civil Twilight 5:42 AM EDT 9:52 PM EDT
Nautical Twilight 4:57 AM EDT 10:36 PM EDT
Astronomical Twilight 4:03 AM EDT 11:30 PM EDT
Moon 12:35 PM EDT (7/24) 11:42 PM EDT (7/24)
Length of Visible Light 16h 10m
Length of Day
15h 00m
Waxing Crescent, 31% of the Moon is Illuminated
Jul 24
Waxing Crescent
Jul 26
First Quarter
Aug 1
Full
Aug 9
Last Quarter
Aug 17
New

Hourly Weather History & Observations

Time (EDT) Temp. Dew Point Humidity Pressure Visibility Wind Dir Wind Speed Gust Speed Precip Events Conditions
12:15 AM 72.1 °F 62.8 °F 72% 29.92 in 10.0 mi NNW 11.5 mph 19.6 mph N/A   Scattered Clouds
12:34 AM 72.0 °F 62.6 °F 72% 29.92 in 10.0 mi NNW 10.4 mph 17.3 mph N/A   Scattered Clouds
12:54 AM 71.2 °F 63.1 °F 75% 29.92 in 10.0 mi NW 9.2 mph - N/A   Scattered Clouds
1:15 AM 71.1 °F 62.6 °F 75% 29.92 in 10.0 mi NNW 9.2 mph - N/A   Clear
1:34 AM 70.9 °F 63.0 °F 76% 29.92 in 10.0 mi NNW 10.4 mph 17.3 mph N/A   Clear
1:54 AM 70.7 °F 62.8 °F 76% 29.92 in 10.0 mi NNW 12.7 mph 19.6 mph N/A   Clear
2:14 AM 70.7 °F 63.3 °F 77% 29.91 in 10.0 mi North 13.8 mph 21.9 mph N/A   Clear
2:34 AM 70.3 °F 63.0 °F 77% 29.92 in 10.0 mi North 10.4 mph 18.4 mph N/A   Clear
2:55 AM 69.8 °F 62.6 °F 78% 29.93 in 10.0 mi North 11.5 mph - N/A   Clear
3:14 AM 69.8 °F 61.7 °F 75% 29.93 in 10.0 mi North 8.1 mph - N/A   Clear
3:34 AM 69.6 °F 60.3 °F 72% 29.93 in 10.0 mi North 10.4 mph - N/A   Clear
3:54 AM 69.4 °F 60.3 °F 73% 29.94 in 10.0 mi North 10.4 mph - N/A   Clear
4:14 AM 69.3 °F 60.6 °F 74% 29.94 in 10.0 mi North 9.2 mph - N/A   Clear
4:35 AM 68.9 °F 60.8 °F 75% 29.94 in 10.0 mi NNE 8.1 mph - N/A   Clear
4:54 AM 68.9 °F 59.9 °F 73% 29.94 in 10.0 mi North 8.1 mph 16.1 mph N/A   Clear
5:14 AM 68.7 °F 60.8 °F 76% 29.95 in 10.0 mi NNE 8.1 mph - N/A   Clear
5:34 AM 68.4 °F 61.0 °F 77% 29.96 in 10.0 mi NNE 9.2 mph - N/A   Clear
5:54 AM 68.0 °F 59.5 °F 74% 29.96 in 10.0 mi NNE 6.9 mph - N/A   Clear
6:14 AM 67.3 °F 58.3 °F 73% 29.97 in 10.0 mi NE 4.6 mph - N/A   Clear
6:34 AM 66.2 °F 57.7 °F 74% 29.97 in 10.0 mi NE 3.5 mph - N/A   Clear
6:55 AM 66.6 °F 57.4 °F 72% 29.98 in 10.0 mi NNE 3.5 mph - N/A   Clear
7:14 AM 67.1 °F 57.4 °F 71% 29.98 in 10.0 mi NNE 3.5 mph - N/A   Clear
7:34 AM 68.0 °F 57.9 °F 70% 29.99 in 10.0 mi NNE 4.6 mph - N/A   Clear
7:55 AM 68.9 °F 57.4 °F 67% 29.99 in 10.0 mi NE 5.8 mph - N/A   Clear
8:14 AM 69.1 °F 56.8 °F 65% 30.00 in 10.0 mi NE 8.1 mph - N/A   Clear
8:34 AM 69.3 °F 55.8 °F 62% 30.01 in 10.0 mi NE 6.9 mph - N/A   Clear
8:55 AM 70.2 °F 55.9 °F 61% 30.02 in 10.0 mi Calm Calm - N/A   Clear
9:14 AM 70.9 °F 53.2 °F 54% 30.03 in 10.0 mi NE 6.9 mph - N/A   Clear
9:34 AM 72.0 °F 52.3 °F 50% 30.03 in 10.0 mi NNE 6.9 mph - N/A   Clear
9:54 AM 72.3 °F 51.8 °F 48% 30.03 in 10.0 mi NE 8.1 mph - N/A   Clear
10:14 AM 72.3 °F 51.3 °F 47% 30.03 in 10.0 mi NNE 11.5 mph - N/A   Clear
10:35 AM 72.0 °F 50.9 °F 47% 30.04 in 10.0 mi NE 6.9 mph - N/A   Clear
10:54 AM 72.1 °F 52.0 °F 49% 30.05 in 10.0 mi North 6.9 mph - N/A   Clear
11:14 AM 72.3 °F 54.0 °F 52% 30.04 in 10.0 mi NNW 8.1 mph - N/A   Clear
11:35 AM 72.3 °F 53.2 °F 51% 30.04 in 10.0 mi North 5.8 mph - N/A   Clear
11:54 AM 73.0 °F 55.0 °F 53% 30.04 in 10.0 mi NW 9.2 mph - N/A   Clear
12:14 PM 72.7 °F 54.1 °F 52% 30.04 in 10.0 mi NNW 6.9 mph - N/A   Clear
12:35 PM 72.9 °F 54.9 °F 53% 30.05 in 10.0 mi NW 5.8 mph - N/A   Clear
12:54 PM 73.2 °F 54.9 °F 52% 30.05 in 10.0 mi NNW 8.1 mph - N/A   Clear
1:14 PM 73.8 °F 53.6 °F 49% 30.05 in 10.0 mi NNW 8.1 mph - N/A   Clear
1:34 PM 73.4 °F 53.1 °F 49% 30.04 in 10.0 mi NNW 9.2 mph - N/A   Clear
1:54 PM 74.5 °F 52.5 °F 46% 30.04 in 10.0 mi NNW 6.9 mph - N/A   Clear
2:15 PM 74.5 °F 53.4 °F 48% 30.04 in 10.0 mi WNW 9.2 mph - N/A   Clear
2:34 PM 74.5 °F 51.8 °F 45% 30.03 in 10.0 mi NW 8.1 mph - N/A   Clear
2:54 PM 74.8 °F 50.7 °F 43% 30.02 in 10.0 mi WNW 9.2 mph - N/A   Clear
3:15 PM 75.2 °F 50.5 °F 42% 30.02 in 10.0 mi WNW 5.8 mph - N/A   Clear
3:34 PM 75.2 °F 52.5 °F 45% 30.02 in 10.0 mi WNW 6.9 mph - N/A   Clear
3:54 PM 76.3 °F 52.3 °F 43% 30.02 in 10.0 mi West 9.2 mph - N/A   Clear
4:14 PM 76.3 °F 52.9 °F 44% 30.00 in 10.0 mi West 8.1 mph - N/A   Clear
4:34 PM 76.5 °F 52.9 °F 44% 30.00 in 10.0 mi WNW 8.1 mph - N/A   Clear
4:55 PM 76.5 °F 54.1 °F 46% 30.00 in 10.0 mi West 9.2 mph - N/A   Clear
5:14 PM 75.7 °F 53.2 °F 45% 30.00 in 10.0 mi West 6.9 mph - N/A   Clear
5:34 PM 75.9 °F 52.7 °F 44% 30.00 in 10.0 mi West 6.9 mph - N/A   Clear
5:55 PM 75.6 °F 51.3 °F 42% 29.99 in 10.0 mi WNW 5.8 mph - N/A   Clear
6:14 PM 75.2 °F 52.5 °F 45% 29.99 in 10.0 mi NW 5.8 mph - N/A   Clear
6:34 PM 75.6 °F 54.1 °F 47% 29.98 in 10.0 mi WNW 5.8 mph - N/A   Clear
6:54 PM 74.7 °F 51.1 °F 44% 29.99 in 10.0 mi West 4.6 mph - N/A   Clear
7:14 PM 74.5 °F 54.7 °F 50% 29.99 in 10.0 mi West 3.5 mph - N/A   Clear
7:35 PM 75.0 °F 53.1 °F 46% 30.00 in 10.0 mi West 5.8 mph - N/A   Clear
7:54 PM 74.3 °F 55.0 °F 51% 30.00 in 10.0 mi WNW 5.8 mph - N/A   Clear
8:14 PM 73.2 °F 55.0 °F 53% 30.00 in 10.0 mi West 4.6 mph - N/A   Clear
8:35 PM 72.1 °F 55.8 °F 56% 30.00 in 10.0 mi West 5.8 mph - N/A   Clear
8:54 PM 71.2 °F 56.3 °F 59% 30.00 in 10.0 mi Calm Calm - N/A   Clear
9:14 PM 70.3 °F 56.5 °F 61% 30.00 in 10.0 mi NW 3.5 mph - N/A   Clear
9:34 PM 66.4 °F 57.6 °F 73% 30.00 in 10.0 mi Calm Calm - N/A   Clear
9:54 PM 64.4 °F 58.1 °F 80% 30.00 in 10.0 mi Calm Calm - N/A   Clear
10:15 PM 63.0 °F 57.9 °F 84% 30.01 in 10.0 mi Calm Calm - N/A   Clear
10:54 PM 61.2 °F 57.2 °F 87% 30.01 in 10.0 mi Calm Calm - N/A   Clear
11:18 PM 61.9 °F 57.9 °F 87% 30.01 in 10.0 mi Calm Calm - N/A   Clear
11:34 PM 61.5 °F 57.6 °F 87% 30.00 in 10.0 mi Calm Calm - N/A   Clear
11:54 PM 61.2 °F 57.6 °F 88% 30.00 in 10.0 mi Calm Calm - N/A   Clear